Tracking 18852 objects as of 23-Nov-2017
HD Live streaming from Space Station
objects crossing your sky now

FENGYUN 1C DEB

Track FENGYUN 1C DEB now!
10-day predictions


NORAD ID: 29876
Int'l Code: 1999-025FW
Perigee: 792.8 km
Apogee: 881.7 km
Inclination: 98.3 °
Period: 101.5 minutes
Semi major axis: 7208 km
RCS: 0.0256 m2 (small)
Launch date: May 10, 1999
Source: People's Republic of China (PRC)
Launch site: Taiyaun Space Center, China (TSC)

Note: This is SATELLITE DEBRIS
aabbcc
Your satellite tracking list
Your tracking list is empty




NASA's NSSDC Master Catalog

Two Line Element Set (TLE):
1 29876U 99025FW  17326.43720250 +.00000070 +00000-0 +52475-4 0  9993
2 29876 098.2678 133.5438 0061617 279.7815 132.5982 14.18594143561878
Source of the keplerian elements: AFSPC